Big Rapids, MI

6:49 AM EDT on October 19, 2019 (GMT -0400)
Roben-Hood

Weather History for KRQB - May, 2019

Change the Weather History Date:

Sunday, May 19, 2019

  Actual Average Record
Temperature  
Mean Temperature 60 °F -  
Max Temperature 68 °F 71 °F 91 °F (1977)
Min Temperature 51 °F 45 °F 26 °F (2002)
Degree Days  
Heating Degree Days 6    
Growing Degree Days 10 (Base 50)    
Moisture  
Dew Point 54 °F    
Average Humidity 85    
Maximum Humidity 95    
Minimum Humidity 74    
Precipitation  
Precipitation 0.39 in - - ()
Sea Level Pressure  
Sea Level Pressure 29.67 in    
Wind  
Wind Speed 7 mph (SSE)    
Max Wind Speed 16 mph    
Max Gust Speed 30 mph    
Visibility 9 miles    
Events Rain    
Averages and records for this station are not official NWS values.
T = Trace of Precipitation, MM = Missing Value Source: NWS Daily Summary

Daily Weather History Graph

Daily Weather History Graph

Search for Another Location

Airport or City:

Astronomy

May. 19, 2019 Rise Set
Actual Time 6:12 AM EDT 9:04 PM EDT
Civil Twilight 5:39 AM EDT 9:38 PM EDT
Nautical Twilight 4:56 AM EDT 10:21 PM EDT
Astronomical Twilight 4:07 AM EDT 11:11 PM EDT
Moon 10:04 PM EDT 6:59 AM EDT
Length of Visible Light 15h 59m
Length of Day
14h 51m
Full, 99% of the Moon is Illuminated
May 19
Full
May 26
Last Quarter
Jun 3
New
Jun 10
First Quarter
Jun 17
Full

Hourly Weather History & Observations

Time (EDT) Temp. Dew Point Humidity Pressure Visibility Wind Dir Wind Speed Gust Speed Precip Events Conditions
12:15 AM 57.4 °F 49.1 °F 74% 29.80 in 10.0 mi ESE 9.2 mph - N/A   Overcast
12:16 AM 57.4 °F 49.1 °F 74% 29.80 in 10.0 mi ESE 9.2 mph - N/A   Overcast
12:35 AM 56.7 °F 48.6 °F 74% 29.80 in 10.0 mi ESE 11.5 mph - N/A   Overcast
12:55 AM 56.1 °F 48.2 °F 75% 29.79 in 10.0 mi ESE 10.4 mph - N/A   Overcast
1:15 AM 55.8 °F 48.2 °F 76% 29.80 in 10.0 mi SE 3.5 mph - N/A   Overcast
1:35 AM 55.8 °F 48.4 °F 76% 29.80 in 10.0 mi ESE 8.1 mph - N/A   Overcast
1:36 AM 55.8 °F 48.4 °F 76% 29.80 in 10.0 mi SE 6.9 mph - N/A   Overcast
1:55 AM 55.4 °F 48.6 °F 78% 29.79 in 10.0 mi East 10.4 mph - N/A   Overcast
2:15 AM 55.4 °F 48.6 °F 78% 29.78 in 10.0 mi Calm Calm - N/A   Overcast
2:35 AM 55.4 °F 48.6 °F 78% 29.78 in 10.0 mi East 4.6 mph - N/A   Overcast
2:36 AM 55.4 °F 48.6 °F 78% 29.78 in 10.0 mi East 8.1 mph - N/A   Overcast
2:55 AM 55.0 °F 48.4 °F 78% 29.77 in 10.0 mi East 6.9 mph - N/A   Overcast
3:15 AM 54.7 °F 48.6 °F 80% 29.77 in 10.0 mi Calm Calm - N/A   Overcast
3:16 AM 54.7 °F 48.6 °F 80% 29.77 in 10.0 mi East 3.5 mph - N/A   Overcast
3:35 AM 54.5 °F 48.6 °F 80% 29.76 in 10.0 mi East 3.5 mph - N/A   Overcast
3:55 AM 54.5 °F 48.6 °F 80% 29.76 in 10.0 mi East 3.5 mph - N/A   Overcast
3:56 AM 54.5 °F 48.6 °F 80% 29.76 in 10.0 mi East 4.6 mph - N/A   Overcast
4:15 AM 53.6 °F 48.2 °F 82% 29.76 in 10.0 mi East 4.6 mph - N/A   Mostly Cloudy
4:16 AM 53.6 °F 48.2 °F 82% 29.76 in 10.0 mi ENE 3.5 mph - N/A   Mostly Cloudy
4:35 AM 53.4 °F 47.8 °F 81% 29.75 in 10.0 mi East 3.5 mph - N/A   Scattered Clouds
4:55 AM 52.7 °F 47.7 °F 83% 29.75 in 10.0 mi East 4.6 mph - N/A   Mostly Cloudy
5:15 AM 52.7 °F 47.7 °F 83% 29.74 in 10.0 mi East 4.6 mph - N/A   Mostly Cloudy
5:16 AM 52.7 °F 47.7 °F 83% 29.74 in 10.0 mi East 4.6 mph - N/A   Mostly Cloudy
5:35 AM 52.3 °F 47.3 °F 83% 29.74 in 10.0 mi East 4.6 mph - N/A   Scattered Clouds
5:36 AM 52.3 °F 47.3 °F 83% 29.74 in 10.0 mi East 4.6 mph - N/A   Scattered Clouds
5:55 AM 52.0 °F 47.3 °F 84% 29.73 in 10.0 mi East 4.6 mph - N/A   Clear
5:56 AM 52.0 °F 47.1 °F 83% 29.73 in 10.0 mi East 4.6 mph - N/A   Clear
6:15 AM 51.3 °F 46.9 °F 85% 29.72 in 10.0 mi East 3.5 mph - N/A   Clear
6:35 AM 51.8 °F 47.5 °F 85% 29.72 in 10.0 mi East 4.6 mph - N/A   Clear
6:36 AM 51.8 °F 47.5 °F 85% 29.72 in 10.0 mi East 4.6 mph - N/A   Clear
6:55 AM 52.0 °F 47.3 °F 84% 29.72 in 10.0 mi East 4.6 mph - N/A   Scattered Clouds
6:56 AM 52.0 °F 47.5 °F 85% 29.72 in 10.0 mi East 4.6 mph - N/A   Scattered Clouds
7:15 AM 52.3 °F 47.7 °F 84% 29.72 in 10.0 mi East 5.8 mph - N/A   Mostly Cloudy
7:35 AM 52.7 °F 47.8 °F 84% 29.71 in 10.0 mi ESE 6.9 mph - N/A   Overcast
7:55 AM 52.9 °F 48.0 °F 84% 29.71 in 10.0 mi East 5.8 mph - N/A   Overcast
7:56 AM 52.9 °F 48.0 °F 84% 29.71 in 10.0 mi ESE 5.8 mph - N/A   Overcast
8:15 AM 52.7 °F 48.6 °F 86% 29.71 in 10.0 mi ESE 5.8 mph - N/A Rain Light Rain
8:16 AM 52.7 °F 48.6 °F 86% 29.71 in 10.0 mi East 4.6 mph - N/A Rain Light Rain
8:35 AM 52.3 °F 49.1 °F 89% 29.71 in 7.0 mi SE 4.6 mph - 0.01 in Rain Light Rain
8:55 AM 52.7 °F 50.2 °F 91% 29.70 in 4.0 mi ESE 5.8 mph - 0.04 in   Overcast
8:56 AM 52.7 °F 50.2 °F 91% 29.70 in 4.0 mi ESE 4.6 mph - 0.04 in   Overcast
9:15 AM 52.7 °F 50.7 °F 93% 29.70 in 5.0 mi ESE 4.6 mph - 0.02 in   Overcast
9:16 AM 52.7 °F 50.7 °F 93% 29.70 in 5.0 mi East 4.6 mph - 0.02 in   Overcast
9:35 AM 52.7 °F 50.9 °F 94% 29.70 in 7.0 mi East 3.5 mph - 0.04 in Rain Light Rain
9:36 AM 52.7 °F 51.1 °F 94% 29.69 in 7.0 mi East 3.5 mph - 0.04 in Rain Light Rain
9:55 AM 53.6 °F 52.0 °F 94% 29.69 in 7.0 mi ESE 6.9 mph - 0.04 in   Overcast
10:15 AM 54.9 °F 53.2 °F 94% 29.68 in 10.0 mi ESE 6.9 mph - N/A   Overcast
10:16 AM 54.9 °F 53.2 °F 94% 29.67 in 10.0 mi ESE 8.1 mph - N/A   Overcast
10:35 AM 55.9 °F 54.3 °F 94% 29.67 in 10.0 mi East 11.5 mph - N/A   Overcast
10:36 AM 55.8 °F 54.3 °F 95% 29.67 in 7.0 mi East 9.2 mph - N/A   Overcast
10:55 AM 56.7 °F 55.0 °F 94% 29.67 in 10.0 mi East 5.8 mph - N/A   Overcast
11:15 AM 57.2 °F 55.6 °F 94% 29.66 in 10.0 mi ESE 10.4 mph - N/A   Overcast
11:35 AM 58.6 °F 56.8 °F 94% 29.66 in 10.0 mi SE 5.8 mph - N/A   Overcast
11:55 AM 59.4 °F 57.4 °F 93% 29.65 in 10.0 mi SE 5.8 mph - N/A   Overcast
11:56 AM 59.5 °F 57.6 °F 93% 29.65 in 10.0 mi SE 5.8 mph - N/A   Overcast
12:15 PM 60.8 °F 58.5 °F 92% 29.64 in 10.0 mi SE 5.8 mph - N/A   Overcast
12:16 PM 60.8 °F 58.5 °F 92% 29.64 in 10.0 mi SE 6.9 mph - N/A   Overcast
12:35 PM 61.2 °F 59.0 °F 93% 29.63 in 10.0 mi ESE 5.8 mph - N/A   Overcast
12:55 PM 61.2 °F 59.2 °F 93% 29.62 in 3.0 mi SSE 4.6 mph - 0.07 in Rain Heavy Rain
1:15 PM 60.8 °F 59.2 °F 94% 29.64 in 2.5 mi Calm Calm - 0.07 in Rain Rain
1:16 PM 60.8 °F 59.4 °F 95% 29.64 in 2.5 mi Calm Calm - 0.08 in Rain Rain
1:35 PM 64.2 °F 62.6 °F 94% 29.62 in 10.0 mi SSW 5.8 mph - 0.10 in Rain Light Rain
1:55 PM 65.3 °F 63.0 °F 92% 29.62 in 10.0 mi SSW 8.1 mph - 0.10 in Rain Light Rain
1:56 PM 65.3 °F 63.0 °F 92% 29.62 in 10.0 mi SSW 6.9 mph - 0.10 in Rain Light Rain
2:15 PM 64.9 °F 62.6 °F 92% 29.63 in 10.0 mi SW 10.4 mph 20.7 mph N/A Rain Light Rain
2:16 PM 64.9 °F 62.6 °F 92% 29.62 in 10.0 mi SW 9.2 mph 20.7 mph N/A Rain Light Rain
2:35 PM 65.3 °F 62.4 °F 90% 29.62 in 10.0 mi SW 8.1 mph 21.9 mph N/A   Overcast
2:55 PM 64.9 °F 61.9 °F 90% 29.61 in 5.0 mi SW 10.4 mph - N/A Rain Rain
2:56 PM 64.8 °F 61.9 °F 90% 29.61 in 5.0 mi SW 9.2 mph - N/A Rain Rain
3:15 PM 64.4 °F 62.1 °F 92% 29.61 in 5.0 mi SW 10.4 mph 17.3 mph N/A   Overcast
3:35 PM 65.3 °F 62.6 °F 91% 29.60 in 10.0 mi SSW 8.1 mph 19.6 mph N/A   Overcast
3:55 PM 66.0 °F 62.8 °F 89% 29.58 in 10.0 mi SSW 11.5 mph 20.7 mph N/A   Overcast
3:56 PM 66.0 °F 63.0 °F 90% 29.58 in 10.0 mi SSW 11.5 mph 20.7 mph N/A   Overcast
4:15 PM 66.2 °F 62.6 °F 88% 29.58 in 10.0 mi SW 9.2 mph 20.7 mph N/A   Overcast
4:16 PM 66.2 °F 62.6 °F 88% 29.59 in 10.0 mi SSW 8.1 mph - N/A   Overcast
4:35 PM 67.6 °F 63.0 °F 85% 29.57 in 10.0 mi SSW 8.1 mph 18.4 mph N/A   Overcast
4:55 PM 68.7 °F 63.0 °F 82% 29.55 in 10.0 mi SW 9.2 mph 19.6 mph N/A   Overcast
4:56 PM 68.9 °F 63.0 °F 81% 29.55 in 10.0 mi SW 11.5 mph 16.1 mph N/A   Overcast
5:15 PM 68.2 °F 61.7 °F 80% 29.55 in 10.0 mi SW 11.5 mph 24.2 mph N/A Rain Rain
5:16 PM 68.0 °F 61.5 °F 80% 29.55 in 10.0 mi SW 9.2 mph 24.2 mph N/A Rain Rain
5:35 PM 64.9 °F 60.8 °F 86% 29.55 in 5.0 mi West 15.0 mph 19.6 mph 0.05 in Rain Light Rain
5:55 PM 60.8 °F 57.6 °F 89% 29.55 in 2.5 mi West 13.8 mph 29.9 mph 0.14 in Rain Heavy Rain
6:15 PM 62.8 °F 59.2 °F 88% 29.56 in 10.0 mi WSW 9.2 mph - N/A   Mostly Cloudy
6:16 PM 63.0 °F 59.4 °F 88% 29.56 in 10.0 mi WSW 10.4 mph - N/A   Mostly Cloudy
6:35 PM 63.7 °F 59.4 °F 86% 29.56 in 10.0 mi SW 11.5 mph 20.7 mph N/A   Overcast
6:36 PM 63.7 °F 59.2 °F 85% 29.56 in 10.0 mi SW 12.7 mph 20.7 mph N/A   Overcast
6:55 PM 64.4 °F 59.0 °F 83% 29.56 in 10.0 mi SW 11.5 mph 20.7 mph N/A   Mostly Cloudy
7:15 PM 64.4 °F 58.1 °F 80% 29.57 in 10.0 mi SW 12.7 mph 19.6 mph N/A   Scattered Clouds
7:16 PM 64.4 °F 58.1 °F 80% 29.57 in 10.0 mi SW 10.4 mph 19.6 mph N/A   Scattered Clouds
7:35 PM 64.4 °F 57.2 °F 77% 29.57 in 10.0 mi WSW 12.7 mph 17.3 mph N/A   Clear
7:36 PM 64.4 °F 57.2 °F 77% 29.57 in 10.0 mi WSW 13.8 mph 17.3 mph N/A   Clear
7:55 PM 64.2 °F 56.8 °F 77% 29.58 in 10.0 mi WSW 11.5 mph 16.1 mph N/A   Scattered Clouds
8:15 PM 63.9 °F 56.5 °F 77% 29.58 in 10.0 mi WSW 9.2 mph - N/A   Mostly Cloudy
8:16 PM 63.9 °F 56.5 °F 77% 29.58 in 10.0 mi SW 9.2 mph - N/A   Mostly Cloudy
8:35 PM 63.9 °F 55.9 °F 75% 29.59 in 10.0 mi West 13.8 mph 24.2 mph N/A   Mostly Cloudy
8:55 PM 62.2 °F 55.0 °F 77% 29.61 in 10.0 mi West 8.1 mph - N/A   Scattered Clouds
8:56 PM 62.1 °F 55.0 °F 78% 29.61 in 10.0 mi West 10.4 mph 16.1 mph N/A   Scattered Clouds
9:15 PM 61.2 °F 54.5 °F 79% 29.62 in 10.0 mi West 10.4 mph 19.6 mph N/A   Mostly Cloudy
9:16 PM 61.2 °F 54.5 °F 79% 29.62 in 10.0 mi West 15.0 mph 20.7 mph N/A   Mostly Cloudy
9:35 PM 59.2 °F 52.3 °F 78% 29.64 in 10.0 mi West 16.1 mph 26.5 mph N/A   Overcast
9:55 PM 57.2 °F 50.9 °F 79% 29.65 in 10.0 mi West 13.8 mph 20.7 mph N/A   Overcast
9:56 PM 57.2 °F 50.9 °F 79% 29.65 in 10.0 mi West 13.8 mph 20.7 mph N/A   Overcast
10:15 PM 56.3 °F 49.5 °F 78% 29.66 in 10.0 mi West 11.5 mph 20.7 mph N/A   Overcast
10:35 PM 55.0 °F 48.7 °F 79% 29.67 in 10.0 mi West 11.5 mph - N/A   Overcast
10:36 PM 54.9 °F 48.7 °F 80% 29.67 in 10.0 mi West 11.5 mph - N/A   Overcast
10:55 PM 54.3 °F 48.2 °F 80% 29.67 in 10.0 mi West 9.2 mph - N/A   Overcast
10:56 PM 54.1 °F 48.0 °F 80% 29.67 in 10.0 mi West 8.1 mph - N/A   Overcast
11:15 PM 53.6 °F 47.8 °F 81% 29.67 in 10.0 mi West 11.5 mph - N/A   Overcast
11:35 PM 52.9 °F 47.7 °F 82% 29.68 in 10.0 mi West 12.7 mph 18.4 mph N/A   Overcast
11:36 PM 52.7 °F 47.7 °F 83% 29.68 in 10.0 mi West 12.7 mph 18.4 mph N/A   Overcast
11:55 PM 52.5 °F 47.7 °F 84% 29.68 in 10.0 mi West 4.6 mph 17.3 mph N/A   Overcast
11:56 PM 52.5 °F 47.7 °F 84% 29.68 in 10.0 mi West 5.8 mph 17.3 mph N/A   Overcast